Weather History for KIBM - February, 2013

Change the Weather History Date:

Saturday, February 16, 2013

  Actual Average (KSNY) Record (KSNY)
Temperature  
Mean Temperature 38 °F 32 °F  
Max Temperature 52 °F 45 °F 70 °F (2011)
Min Temperature 24 °F 19 °F -15 °F (1990)
Degree Days  
Heating Degree Days 27 33  
Month to date heating degree days 549  
Since 1 July heating degree days 4206  
Cooling Degree Days 0 0  
Month to date cooling degree days 0  
Year to date cooling degree days 0  
Moisture  
Dew Point 19 °F    
Average Humidity 51    
Maximum Humidity 81    
Minimum Humidity 28    
Precipitation  
Precipitation 0.00 in 0.01 in 0.14 in (1993)
Month to date precipitation 0.14  
Year to date precipitation 0.34  
Sea Level Pressure  
Sea Level Pressure 30.04 in    
Wind  
Wind Speed 17 mph (WNW)    
Max Wind Speed 32 mph    
Max Gust Speed 38 mph    
Visibility 10 miles    
Events      
T = Trace of Precipitation, MM = Missing Value Source: NWS Daily Summary

Daily Weather History Graph

Daily Weather History Graph

Search for Another Location

Airport or City:

Trip Planner

Search our weather history database for the weather conditions in past years. The results will help you decide how hot, cold, wet, or windy it might be!

Date:

Astronomy

Feb. 16, 2013 Rise Set
Actual Time 7:47 AM CST 6:30 PM CST
Civil Twilight 7:19 AM CST 6:58 PM CST
Nautical Twilight 6:47 AM CST 7:30 PM CST
Astronomical Twilight 6:15 AM CST 8:02 PM CST
Moon 10:57 AM CST (2/16) 12:36 AM CST (2/16)
Length of Visible Light 11h 39m
Length of Day
10h 42m
Waxing Crescent, 39% of the Moon is Illuminated
Feb 16
Waxing Crescent
Feb 17
First Quarter
Feb 25
Full
Mar 4
Last Quarter
Mar 11
New

Hourly Weather History & Observations

Time (CST) Temp. Windchill Dew Point Humidity Pressure Visibility Wind Dir Wind Speed Gust Speed Precip Events Conditions
12:15 AM 24.3 °F 12.7 °F 19.2 °F 81% 30.17 in 10.0 mi WSW 12.7 mph - N/A   Overcast
12:35 AM 24.6 °F 12.7 °F 19.2 °F 80% 30.17 in 10.0 mi WSW 13.8 mph - N/A   Overcast
12:55 AM 25.0 °F 13.1 °F 19.4 °F 79% 30.16 in 10.0 mi WSW 13.8 mph - N/A   Overcast
1:15 AM 26.1 °F 13.1 °F 19.8 °F 77% 30.15 in 10.0 mi WSW 17.3 mph 20.7 mph N/A   Overcast
1:35 AM 26.6 °F 13.4 °F 19.4 °F 74% 30.14 in 10.0 mi WSW 18.4 mph - N/A   Overcast
1:55 AM 26.2 °F 14.2 °F 19.0 °F 74% 30.13 in 10.0 mi West 15.0 mph - N/A   Overcast
2:15 AM 25.5 °F 14.9 °F 19.0 °F 76% 30.13 in 10.0 mi West 11.5 mph - N/A   Mostly Cloudy
2:35 AM 26.2 °F 16.4 °F 19.0 °F 74% 30.12 in 10.0 mi West 10.4 mph - N/A   Overcast
2:55 AM 25.2 °F 15.7 °F 18.5 °F 76% 30.12 in 10.0 mi West 9.2 mph - N/A   Mostly Cloudy
3:15 AM 24.4 °F 16.5 °F 18.5 °F 78% 30.11 in 10.0 mi WSW 6.9 mph - N/A   Mostly Cloudy
3:35 AM 32.4 °F 20.3 °F 21.2 °F 63% 30.09 in 10.0 mi West 20.7 mph - N/A   Overcast
3:55 AM 31.8 °F 19.3 °F 21.0 °F 64% 30.09 in 10.0 mi WNW 21.9 mph 26.5 mph N/A   Scattered Clouds
4:15 AM 34.0 °F 21.8 °F 20.3 °F 57% 30.08 in 10.0 mi WNW 23.0 mph 29.9 mph N/A   Scattered Clouds
4:35 AM 34.9 °F 22.5 °F 20.3 °F 55% 30.08 in 10.0 mi WNW 25.3 mph 29.9 mph N/A   Mostly Cloudy
4:55 AM 35.6 °F 23.2 °F 19.9 °F 53% 30.08 in 10.0 mi WNW 26.5 mph 34.5 mph N/A   Overcast
5:15 AM 34.5 °F 21.8 °F 19.8 °F 55% 30.08 in 10.0 mi WNW 26.5 mph 32.2 mph N/A   Mostly Cloudy
5:35 AM 34.2 °F 21.5 °F 19.4 °F 55% 30.08 in 10.0 mi WNW 25.3 mph 33.4 mph N/A   Mostly Cloudy
5:55 AM 34.2 °F 21.5 °F 19.4 °F 55% 30.08 in 10.0 mi WNW 25.3 mph 28.8 mph N/A   Mostly Cloudy
6:15 AM 33.8 °F 22.5 °F 19.2 °F 55% 30.08 in 10.0 mi WNW 19.6 mph 26.5 mph N/A   Scattered Clouds
6:35 AM 33.4 °F 21.7 °F 19.0 °F 56% 30.08 in 10.0 mi WNW 20.7 mph 26.5 mph N/A   Clear
6:55 AM 33.8 °F 21.3 °F 19.0 °F 55% 30.08 in 10.0 mi WNW 24.2 mph 29.9 mph N/A   Clear
7:15 AM 33.3 °F 21.5 °F 19.0 °F 56% 30.08 in 10.0 mi WNW 20.7 mph 25.3 mph N/A   Clear
7:35 AM 32.2 °F 21.1 °F 19.0 °F 58% 30.08 in 10.0 mi West 17.3 mph 23.0 mph N/A   Clear
7:55 AM 32.0 °F 20.5 °F 19.0 °F 59% 30.08 in 10.0 mi WNW 18.4 mph - N/A   Clear
8:15 AM 32.7 °F 21.4 °F 19.0 °F 57% 30.08 in 10.0 mi WNW 18.4 mph - N/A   Clear
8:35 AM 33.8 °F 21.3 °F 19.0 °F 55% 30.08 in 10.0 mi WNW 24.2 mph 28.8 mph N/A   Clear
8:55 AM 35.6 °F 23.7 °F 18.7 °F 50% 30.08 in 10.0 mi WNW 24.2 mph 31.1 mph N/A   Clear
9:15 AM 37.4 °F 25.9 °F 18.7 °F 47% 30.08 in 10.0 mi WNW 25.3 mph 33.4 mph N/A   Clear
9:35 AM 39.0 °F 28.3 °F 18.9 °F 44% 30.08 in 10.0 mi WNW 24.2 mph 33.4 mph N/A   Clear
12:15 PM 48.0 °F - 19.8 °F 33% 30.08 in 10.0 mi WNW 32.2 mph 38.0 mph N/A   Clear
12:35 PM 48.4 °F - 19.4 °F 32% 30.07 in 10.0 mi WNW 26.5 mph 34.5 mph N/A   Clear
12:55 PM 49.3 °F - 19.6 °F 31% 30.05 in 10.0 mi WNW 25.3 mph 33.4 mph N/A   Clear
1:15 PM 49.3 °F - 18.7 °F 30% 30.05 in 10.0 mi WNW 24.2 mph 34.5 mph N/A   Clear
1:35 PM 50.4 °F - 19.2 °F 29% 30.04 in 10.0 mi WNW 26.5 mph 34.5 mph N/A   Clear
1:55 PM 51.1 °F - 19.2 °F 29% 30.03 in 10.0 mi WNW 25.3 mph 35.7 mph N/A   Clear
2:15 PM 51.1 °F - 19.6 °F 29% 30.02 in 10.0 mi NW 24.2 mph 36.8 mph N/A   Clear
2:35 PM 52.2 °F - 19.4 °F 28% 30.02 in 10.0 mi WNW 28.8 mph 36.8 mph N/A   Clear
2:55 PM 51.4 °F - 18.7 °F 28% 30.02 in 10.0 mi WNW 26.5 mph 33.4 mph N/A   Clear
3:15 PM 51.4 °F - 18.7 °F 28% 30.01 in 10.0 mi WNW 23.0 mph 29.9 mph N/A   Clear
3:35 PM 51.4 °F - 19.4 °F 28% 30.01 in 10.0 mi NW 23.0 mph 32.2 mph N/A   Clear
3:55 PM 50.9 °F - 19.6 °F 29% 30.01 in 10.0 mi NW 17.3 mph 27.6 mph N/A   Clear
4:15 PM 50.9 °F - 19.2 °F 29% 30.00 in 10.0 mi NW 20.7 mph 26.5 mph N/A   Clear
4:35 PM 50.5 °F - 19.0 °F 29% 30.00 in 10.0 mi NW 19.6 mph 29.9 mph N/A   Clear
4:55 PM 50.0 °F - 18.3 °F 29% 30.00 in 10.0 mi NW 19.6 mph 26.5 mph N/A   Clear
5:15 PM 50.0 °F - 19.4 °F 30% 30.00 in 10.0 mi NW 18.4 mph 23.0 mph N/A   Clear
5:35 PM 48.9 °F - 19.4 °F 31% 30.00 in 10.0 mi NW 18.4 mph - N/A   Clear
5:55 PM 47.5 °F - 19.4 °F 33% 29.98 in 10.0 mi NW 13.8 mph 20.7 mph N/A   Clear
6:15 PM 45.0 °F 40.6 °F 20.1 °F 37% 30.00 in 10.0 mi NW 8.1 mph - N/A   Clear
6:35 PM 42.1 °F 36.6 °F 20.1 °F 42% 29.99 in 10.0 mi NNW 9.2 mph - N/A   Clear
6:55 PM 38.7 °F 32.9 °F 19.9 °F 47% 29.98 in 10.0 mi NNW 8.1 mph - N/A   Clear
7:15 PM 37.4 °F 32.1 °F 20.1 °F 50% 29.98 in 10.0 mi NNW 6.9 mph - N/A   Clear
7:35 PM 37.0 °F 31.6 °F 20.1 °F 50% 29.98 in 10.0 mi NNW 6.9 mph - N/A   Clear
7:55 PM 37.6 °F 31.6 °F 20.3 °F 50% 29.98 in 10.0 mi NNW 8.1 mph - N/A   Clear
8:15 PM 39.7 °F 33.7 °F 20.3 °F 46% 29.98 in 10.0 mi NW 9.2 mph 16.1 mph N/A   Clear
8:35 PM 37.8 °F 30.7 °F 20.1 °F 49% 29.97 in 10.0 mi NW 10.4 mph - N/A   Clear
8:55 PM 37.4 °F 31.4 °F 20.1 °F 50% 29.97 in 10.0 mi NW 8.1 mph - N/A   Clear
9:15 PM 34.9 °F 29.0 °F 19.4 °F 53% 29.96 in 10.0 mi West 6.9 mph - N/A   Clear
9:35 PM 32.7 °F 28.3 °F 19.0 °F 57% 29.96 in 10.0 mi West 4.6 mph - N/A   Clear
9:55 PM 35.2 °F 28.8 °F 19.0 °F 52% 29.95 in 10.0 mi NW 8.1 mph - N/A   Clear
10:15 PM 32.4 °F 26.0 °F 18.0 °F 55% 29.95 in 10.0 mi WNW 6.9 mph - N/A   Clear
10:35 PM 32.0 °F 23.0 °F 18.3 °F 57% 29.95 in 10.0 mi West 11.5 mph - N/A   Clear
10:55 PM 29.8 °F 21.5 °F 17.2 °F 59% 29.94 in 10.0 mi West 9.2 mph - N/A   Clear
11:15 PM 30.2 °F 21.9 °F 16.5 °F 57% 29.94 in 10.0 mi West 9.2 mph - N/A   Clear
11:35 PM 27.3 °F 17.7 °F 16.3 °F 63% 29.94 in 10.0 mi WSW 10.4 mph - N/A   Clear
11:55 PM 25.3 °F 17.6 °F 15.1 °F 65% 29.92 in 10.0 mi West 6.9 mph - N/A   Clear